Total_Precipitation_Accumulation
0.06 0.05 0.06 0.09 0.11 0.15 0.18 0.20 0.21 0.20 0.18 0.16 0.16 0.15 0.13 0.13 0.15 0.18 0.20 0.22 0.25 0.32 0.38 0.44 0.48 0.55 0.62 0.63 0.68 0.70 0.73 0.84 0.78 0.66 0.77 0.86 0.78 0.60 0.51 0.51 0.53 0.53 0.51
0.05 0.04 0.03 0.03 0.05 0.08 0.12 0.15 0.18 0.17 0.16 0.16 0.16 0.14 0.11 0.11 0.15 0.19 0.22 0.23 0.25 0.29 0.36 0.46 0.50 0.52 0.58 0.65 0.76 0.79 0.81 0.93 0.93 0.78 0.85 0.94 0.86 0.74 0.61 0.53 0.44 0.43 0.44
0.04 0.03 0.04 0.03 0.04 0.05 0.07 0.10 0.13 0.15 0.17 0.17 0.17 0.15 0.13 0.12 0.13 0.15 0.20 0.23 0.28 0.29 0.34 0.42 0.50 0.58 0.61 0.65 0.75 0.79 0.85 1.00 1.05 0.96 0.96 1.06 1.09 0.88 0.66 0.51 0.42 0.42 0.39
0.11 0.10 0.10 0.09 0.08 0.07 0.06 0.07 0.09 0.13 0.16 0.19 0.21 0.21 0.19 0.17 0.16 0.14 0.14 0.17 0.22 0.27 0.36 0.39 0.43 0.55 0.64 0.69 0.77 0.88 0.96 1.05 1.12 1.10 1.13 1.24 1.24 1.10 0.85 0.58 0.48 0.45 0.43
0.20 0.23 0.25 0.24 0.21 0.16 0.14 0.14 0.16 0.20 0.23 0.29 0.31 0.29 0.28 0.23 0.16 0.14 0.16 0.15 0.17 0.20 0.27 0.34 0.35 0.40 0.50 0.62 0.70 0.81 0.98 1.13 1.28 1.34 1.35 1.50 1.46 1.26 0.99 0.70 0.58 0.52 0.49
0.21 0.23 0.24 0.26 0.24 0.23 0.24 0.26 0.30 0.33 0.39 0.41 0.39 0.39 0.38 0.28 0.22 0.18 0.17 0.17 0.18 0.21 0.25 0.31 0.32 0.31 0.34 0.40 0.50 0.64 0.79 0.96 1.16 1.35 1.47 1.57 1.62 1.48 1.28 1.03 0.72 0.53 0.49
0.26 0.31 0.33 0.33 0.31 0.33 0.36 0.38 0.40 0.42 0.45 0.47 0.46 0.46 0.44 0.41 0.31 0.22 0.17 0.17 0.20 0.24 0.27 0.30 0.25 0.21 0.28 0.32 0.37 0.44 0.54 0.65 0.81 1.02 1.22 1.32 1.49 1.61 1.48 1.19 0.91 0.70 0.56
0.24 0.29 0.34 0.39 0.43 0.47 0.54 0.58 0.59 0.60 0.58 0.55 0.52 0.52 0.53 0.49 0.39 0.28 0.23 0.21 0.23 0.25 0.28 0.30 0.30 0.27 0.30 0.36 0.41 0.40 0.40 0.43 0.51 0.63 0.78 1.02 1.22 1.44 1.49 1.38 1.28 1.03 0.79
0.33 0.38 0.43 0.47 0.51 0.56 0.61 0.66 0.69 0.70 0.64 0.63 0.64 0.66 0.66 0.64 0.51 0.34 0.28 0.28 0.31 0.30 0.32 0.35 0.39 0.35 0.30 0.27 0.35 0.36 0.35 0.35 0.35 0.43 0.56 0.77 1.02 1.20 1.38 1.38 1.27 1.13 0.91
0.39 0.40 0.43 0.50 0.55 0.55 0.58 0.62 0.61 0.64 0.62 0.65 0.69 0.74 0.77 0.74 0.63 0.41 0.34 0.33 0.37 0.38 0.43 0.45 0.42 0.34 0.31 0.23 0.29 0.34 0.33 0.32 0.37 0.38 0.45 0.55 0.69 0.93 1.14 1.17 1.08 1.01 0.88
0.36 0.36 0.39 0.46 0.54 0.55 0.58 0.61 0.58 0.57 0.58 0.62 0.65 0.70 0.78 0.80 0.68 0.40 0.32 0.36 0.42 0.47 0.48 0.48 0.49 0.40 0.31 0.24 0.25 0.31 0.28 0.32 0.43 0.47 0.48 0.55 0.66 0.79 0.97 1.06 1.05 0.92 0.80
0.29 0.28 0.28 0.31 0.33 0.36 0.45 0.49 0.54 0.59 0.60 0.62 0.70 0.76 0.82 0.86 0.75 0.52 0.31 0.32 0.43 0.52 0.56 0.58 0.59 0.49 0.39 0.32 0.26 0.24 0.24 0.27 0.38 0.44 0.47 0.49 0.56 0.65 0.81 1.03 1.14 1.06 0.87
0.26 0.26 0.27 0.28 0.32 0.37 0.43 0.43 0.44 0.48 0.49 0.53 0.71 0.84 0.89 0.93 0.85 0.60 0.40 0.31 0.37 0.48 0.57 0.69 0.69 0.56 0.50 0.45 0.36 0.29 0.27 0.27 0.34 0.42 0.41 0.42 0.47 0.56 0.74 1.04 1.28 1.41 1.27
0.30 0.30 0.31 0.32 0.33 0.35 0.43 0.43 0.42 0.42 0.41 0.48 0.68 0.82 0.91 0.93 0.87 0.70 0.54 0.43 0.41 0.47 0.54 0.65 0.72 0.72 0.68 0.62 0.52 0.40 0.31 0.32 0.34 0.40 0.45 0.49 0.58 0.67 0.79 0.87 1.09 1.29 1.35
0.31 0.31 0.31 0.33 0.34 0.33 0.39 0.42 0.36 0.37 0.34 0.37 0.54 0.77 0.84 0.77 0.65 0.52 0.46 0.48 0.47 0.52 0.59 0.76 0.90 0.95 0.97 0.91 0.78 0.65 0.54 0.50 0.46 0.47 0.57 0.61 0.67 0.70 0.73 0.78 0.93 1.07 1.08
0.37 0.34 0.33 0.33 0.33 0.34 0.37 0.37 0.30 0.23 0.21 0.19 0.25 0.40 0.52 0.46 0.38 0.35 0.33 0.34 0.32 0.34 0.46 0.71 0.99 1.09 1.13 1.12 1.03 0.87 0.75 0.68 0.65 0.64 0.68 0.70 0.71 0.75 0.79 0.84 0.91 1.00 0.99
0.40 0.36 0.33 0.30 0.30 0.29 0.32 0.38 0.41 0.37 0.23 0.17 0.15 0.19 0.25 0.26 0.28 0.35 0.36 0.30 0.25 0.23 0.33 0.54 0.83 1.05 1.15 1.20 1.15 0.99 0.83 0.79 0.83 0.79 0.77 0.76 0.75 0.76 0.83 0.88 0.90 0.95 0.98
0.34 0.32 0.31 0.29 0.28 0.29 0.32 0.36 0.39 0.46 0.47 0.38 0.24 0.17 0.17 0.17 0.23 0.40 0.48 0.35 0.27 0.24 0.30 0.46 0.70 0.97 1.08 1.14 1.13 1.07 0.97 0.94 0.94 0.90 0.86 0.83 0.82 0.81 0.80 0.82 0.85 0.88 0.90
0.32 0.28 0.24 0.24 0.25 0.28 0.32 0.34 0.36 0.42 0.53 0.60 0.55 0.32 0.23 0.22 0.25 0.46 0.59 0.43 0.36 0.38 0.39 0.45 0.60 0.82 0.98 1.06 1.08 1.06 1.02 1.00 1.00 0.99 0.95 0.92 0.89 0.90 0.85 0.80 0.83 0.90 0.93
0.27 0.22 0.18 0.18 0.20 0.26 0.29 0.30 0.35 0.46 0.57 0.70 0.72 0.49 0.32 0.29 0.36 0.61 0.74 0.59 0.51 0.51 0.50 0.51 0.59 0.74 0.90 1.02 1.05 1.03 1.05 1.05 1.06 1.05 1.02 0.98 0.93 0.93 0.93 0.91 0.90 0.92 0.87
0.24 0.20 0.16 0.15 0.19 0.24 0.27 0.32 0.37 0.49 0.62 0.71 0.67 0.44 0.32 0.32 0.43 0.66 0.84 0.75 0.65 0.64 0.61 0.58 0.62 0.73 0.84 0.95 0.98 0.96 0.99 1.07 1.07 1.06 1.04 1.03 1.00 0.97 0.97 0.98 0.94 0.97 0.97
0.20 0.18 0.17 0.18 0.21 0.25 0.26 0.34 0.41 0.54 0.65 0.72 0.61 0.42 0.36 0.43 0.54 0.70 0.76 0.73 0.70 0.67 0.63 0.64 0.69 0.79 0.85 0.91 0.94 0.97 1.02 1.06 1.05 1.07 1.10 1.10 1.09 1.05 1.05 1.03 0.99 1.00 1.02
0.20 0.18 0.18 0.19 0.22 0.21 0.25 0.35 0.40 0.49 0.61 0.68 0.60 0.54 0.54 0.63 0.66 0.71 0.76 0.76 0.73 0.70 0.66 0.70 0.74 0.77 0.80 0.83 0.82 0.88 0.94 0.95 0.95 0.98 1.05 1.09 1.10 1.07 1.04 0.99 0.95 0.96 0.97
0.19 0.18 0.17 0.18 0.20 0.22 0.27 0.32 0.36 0.42 0.54 0.61 0.59 0.64 0.68 0.71 0.70 0.72 0.76 0.76 0.75 0.76 0.75 0.73 0.73 0.73 0.73 0.75 0.76 0.77 0.78 0.81 0.82 0.86 0.90 0.97 1.00 1.03 1.00 0.94 0.92 0.91 0.92
0.20 0.20 0.19 0.20 0.21 0.24 0.28 0.34 0.40 0.47 0.53 0.57 0.63 0.67 0.71 0.71 0.72 0.76 0.75 0.74 0.75 0.75 0.71 0.69 0.72 0.73 0.73 0.69 0.64 0.61 0.62 0.61 0.64 0.71 0.76 0.84 0.87 0.91 0.92 0.89 0.90 0.92 0.92
0.20 0.25 0.27 0.29 0.31 0.32 0.35 0.40 0.45 0.48 0.51 0.54 0.60 0.67 0.72 0.73 0.74 0.76 0.72 0.70 0.71 0.70 0.65 0.63 0.63 0.65 0.64 0.60 0.55 0.51 0.48 0.45 0.47 0.54 0.57 0.67 0.76 0.80 0.85 0.88 0.87 0.90 0.89